Location: São Paulo
(23.5507°S, 46.6334°W)
Time: 07:32:14
(UTC-03:00)

Transit 2A - Pass Details

Date: 22 February 2026
Orbit: 590 x 954 km, 66.7° (Epoch: 10 March)

Event Time Altitude Azimuth Distance (km) Brightness Sun altitude
Rises 23:35:57 0° 306° (NW) 2,995 - -54.9°
Reaches altitude 10° 23:38:52 10° 289° (WNW) 2,034 - -55.1°
Maximum altitude 23:42:08 19° 242° (WSW) 1,478 - -55.3°
Drops below altitude 10° 23:45:18 10° 196° (SSW) 1,961 - -55.5°
Sets 23:48:04 0° 177° (S) 2,851 - -55.7°
